Content
SEND FEEDBACK

Daily
Averages
Monthly
Summary
United States of America

STATEN ISLAND, NEW YORK


Home > North America > United States > New York
Elevation: 152 feet     Latitude: 40 35N     Longitude: 074 09W

WEATHER
 
SELECT A DAY
Number of Records: 189,740;   Date Range: 1/1/95 - 8/12/14
 
SHARE

PRINT THIS DATA

[ ← Previous Day ]
WEATHER ALMANAC - FEBRUARY 9, 2013
[ Next Day → ]
[ °C ]   °F
Weather ElementAverageHighLow
Temperature28.6 °F33.1 °F (1:51 pm)19.9 °F (11:51 pm)
Dewpoint18.5 °F28.9 °F (2:51 am)7 °F (7:51 pm)
Humidity69 %100 % (2:19 am)35 % (3:51 pm)
Barometer29.98 in30.35 in (11:51 pm)29.78 in (1:51 am)
Wind Speed15.4 mph28.8 mph (11:51 am)
Wind Gust35.7 mph (11:51 am)
Weather ElementAverage
Visibility7.9 mi
Wind DirectionNW (316.6 °)

Weather ElementTotal
Precipitation0.90 in
Heating Degree Days38.5 (Base 65)
Averaged from 32 records on February 9, 2013
WEATHER CONDITIONS BREAKOUT
WIND DIRECTION BREAKOUT
WEATHER BY HOUR - FEBRUARY 9, 2013
[ °C ]   °F
Local TimeTemperatureDewpointHumidityBarometerVisibilityWind DirectionWind SpeedGust SpeedPrecipitationEventsConditions
1:51 AM28.0 °F27.0 °F96 %29.78 in0.5 miNorth (350°)11.5 mph0.09 inFog-SnowSnow
2:09 AM28.4 °F26.6 °F93 %29.79 in1.0 miNorth (350°)13.8 mph0.02 inSnowLight Snow
2:19 AM28.4 °F28.4 °F100 %29.79 in0.5 miNNW (330°)12.7 mph0.04 inFog-SnowSnow
2:38 AM28.4 °F28.4 °F100 %29.80 in0.5 miNNW (340°)18.4 mph21.9 mph0.10 inFog-SnowSnow
2:49 AM28.4 °F28.4 °F100 %29.80 in0.5 miNNW (340°)15.0 mph0.19 inFog-SnowHeavy Snow
2:51 AM28.9 °F28.9 °F100 %29.80 in0.5 miNNW (340°)13.8 mph0.20 inFog-SnowSnow
3:18 AM28.4 °F28.4 °F100 %29.79 in4.0 miNW (320°)13.8 mph0.13 inSnowLight Snow
3:51 AM30.0 °F27.0 °F88 %29.81 in10.0 miNNW (330°)11.5 mph0.13 inOvercast
4:26 AM30.2 °F26.6 °F86 %29.82 in7.0 miNW (320°)13.8 mphOvercast
4:48 AM30.2 °F26.6 °F86 %29.83 in9.0 miNW (320°)13.8 mph0.00 inSnowLight Snow
4:51 AM30.0 °F27.0 °F88 %29.83 in9.0 miNW (310°)12.7 mph0.00 inSnowLight Snow
5:28 AM30.2 °F24.8 °F80 %29.84 in10.0 miNW (310°)15.0 mph23.0 mph0.00 inSnowLight Snow
5:51 AM30.0 °F23.0 °F75 %29.85 in10.0 miNW (310°)16.1 mph24.2 mph0.00 inOvercast
6:51 AM30.0 °F23.0 °F75 %29.88 in10.0 miWest (280°)10.4 mphOvercast
7:10 AM28.4 °F21.2 °F74 %29.89 in10.0 miWNW (300°)15.0 mphOvercast
7:51 AM28.0 °F19.0 °F69 %29.92 in10.0 miWNW (300°)23.0 mph32.2 mphMostly Cloudy
8:51 AM27.0 °F18.0 °F69 %29.95 in10.0 miNW (310°)18.4 mph27.6 mphMostly Cloudy
9:51 AM27.0 °F17.1 °F66 %29.98 in10.0 miNW (310°)13.8 mph28.8 mphMostly Cloudy
10:51 AM28.0 °F16.0 °F61 %30.02 in10.0 miNW (310°)19.6 mph28.8 mphMostly Cloudy
11:51 AM28.9 °F16.0 °F58 %30.03 in10.0 miNW (320°)28.8 mph35.7 mphMostly Cloudy
12:51 PM30.9 °F15.1 °F52 %30.04 in10.0 miNW (320°)19.6 mph26.5 mphScattered Clouds
1:51 PM33.1 °F14.0 °F46 %30.06 in10.0 miWNW (300°)17.3 mph23.0 mphScattered Clouds
2:51 PM33.1 °F10.0 °F38 %30.07 in10.0 miNW (310°)25.3 mph33.4 mphPartly Cloudy
3:51 PM33.1 °F8.1 °F35 %30.09 in10.0 miNW (320°)16.1 mph29.9 mphPartly Cloudy
4:51 PM30.9 °F10.0 °F42 %30.13 in10.0 miWNW (300°)21.9 mph29.9 mphClear
5:51 PM30.0 °F8.1 °F40 %30.17 in10.0 miNW (320°)18.4 mph26.5 mphClear
6:51 PM28.0 °F8.1 °F43 %30.21 in10.0 miNW (320°)10.4 mph19.6 mphClear
7:51 PM27.0 °F7.0 °F43 %30.24 in10.0 miNW (310°)11.5 mph26.5 mphClear
8:51 PM25.0 °F7.0 °F46 %30.28 in10.0 miNW (310°)12.7 mph23.0 mphClear
9:51 PM24.1 °F7.0 °F48 %30.32 in10.0 miNW (310°)11.5 mphClear
10:51 PM21.9 °F8.1 °F55 %30.33 in10.0 miWNW (300°)9.2 mphClear
11:51 PM19.9 °F7.0 °F57 %30.35 in10.0 miNW (310°)6.9 mphClear
Hourly data recorded from KEWR, located miles away from Staten Island, New York







STORIES FROM OUR PARTNERS